Startpagina
METAR-TAF:

METAR-TAF

Vliegvelden :

Productieplatform

L9-ff-1, Nederland

breedte: 53-36-52N, lengte: 4-57-37E, hoogte: 30 m

Actueel weer

Dit bericht is 21 minuten geleden gemaakt, om 21:55 UTC
Wind 17 kt uit het oostzuidoosten
Temperatuur 19°C
Vochtigheid 78%
Druk 1014 hPa
Zicht 10 km of meer

METAR: EHMG 162155Z AUTO 11017KT 9999 NCD 19/15 Q1014 W///H///

Tijdstip: 00:16 (22:16 UTC)


TAF: ontbreekt

Waarnemingen en weersverwachtingen van meer dan 4000 vliegvelden (METAR en TAF).

De beschikbare stations zijn de gele en rode punten op de kaart.

Ga met uw muis naar het station om de naam te zien.

Klik dan om waarnemingen en weersverwachtingen te zien.

kaart wijzigen: klik op de groene knoppen met een zwart kruis om in te zoomen, op de groene knop met een streepje om uit te zoomen of op de groene pijlen voor aangrenzende kaarten.


METAR-TAF: